QPF
0.00 0.00 0.00 0.00 0.00 0.00 0.00 0.00 0.00 0.00 0.00 0.00 0.00 0.00 0.00 0.00 0.01 0.01 0.02 0.03 0.04 0.04 0.05 0.07 0.07 0.08 0.07 0.05 0.04 0.03 0.03 0.03 0.03 0.04 0.06 0.05 0.04 0.03 0.04 0.04 0.03 0.04 0.05 0.06
0.00 0.00 0.00 0.00 0.00 0.00 0.00 0.00 0.00 0.00 0.00 0.00 0.00 0.00 0.00 0.00 0.01 0.02 0.03 0.04 0.05 0.06 0.06 0.06 0.05 0.05 0.04 0.03 0.02 0.02 0.02 0.02 0.04 0.05 0.04 0.04 0.04 0.06 0.07 0.07 0.08 0.09 0.10 0.10
0.00 0.00 0.00 0.00 0.00 0.00 0.00 0.00 0.00 0.00 0.00 0.00 0.00 0.00 0.00 0.01 0.01 0.01 0.01 0.02 0.02 0.02 0.02 0.03 0.03 0.04 0.04 0.03 0.02 0.01 0.02 0.02 0.03 0.05 0.05 0.05 0.06 0.07 0.08 0.09 0.10 0.11 0.12 0.11
0.00 0.01 0.02 0.01 0.00 0.00 0.00 0.00 0.01 0.01 0.01 0.01 0.01 0.01 0.01 0.01 0.01 0.02 0.02 0.02 0.02 0.02 0.02 0.02 0.02 0.02 0.02 0.02 0.02 0.01 0.02 0.02 0.03 0.05 0.07 0.08 0.09 0.08 0.08 0.09 0.10 0.13 0.14 0.12
0.00 0.01 0.01 0.01 0.01 0.00 0.00 0.01 0.01 0.02 0.02 0.02 0.02 0.02 0.01 0.01 0.01 0.02 0.02 0.03 0.03 0.03 0.02 0.02 0.02 0.02 0.02 0.02 0.03 0.03 0.03 0.03 0.04 0.05 0.08 0.11 0.12 0.10 0.09 0.09 0.11 0.12 0.12 0.10
0.00 0.00 0.01 0.00 0.01 0.01 0.01 0.01 0.01 0.01 0.02 0.03 0.02 0.02 0.01 0.01 0.02 0.02 0.02 0.03 0.03 0.03 0.02 0.02 0.02 0.02 0.02 0.03 0.03 0.03 0.03 0.04 0.07 0.09 0.12 0.14 0.14 0.14 0.12 0.11 0.11 0.12 0.11 0.10
0.00 0.00 0.00 0.00 0.01 0.01 0.01 0.01 0.01 0.01 0.02 0.02 0.03 0.03 0.02 0.02 0.02 0.03 0.05 0.04 0.03 0.03 0.02 0.02 0.03 0.03 0.04 0.04 0.05 0.06 0.07 0.08 0.08 0.11 0.13 0.15 0.17 0.15 0.11 0.09 0.10 0.10 0.10 0.11
0.00 0.00 0.00 0.00 0.01 0.01 0.01 0.01 0.01 0.01 0.01 0.01 0.02 0.02 0.02 0.02 0.01 0.02 0.03 0.04 0.04 0.03 0.03 0.02 0.02 0.03 0.04 0.05 0.06 0.07 0.07 0.07 0.07 0.08 0.08 0.08 0.10 0.11 0.11 0.10 0.10 0.09 0.10 0.09
0.01 0.01 0.01 0.01 0.01 0.02 0.02 0.02 0.02 0.01 0.01 0.01 0.01 0.01 0.01 0.01 0.01 0.02 0.02 0.02 0.02 0.03 0.03 0.03 0.03 0.03 0.02 0.03 0.03 0.04 0.04 0.04 0.04 0.04 0.04 0.05 0.05 0.07 0.09 0.10 0.09 0.08 0.07 0.07
0.01 0.01 0.02 0.02 0.03 0.03 0.03 0.02 0.02 0.02 0.02 0.02 0.01 0.01 0.01 0.01 0.02 0.02 0.02 0.02 0.02 0.02 0.02 0.03 0.02 0.02 0.02 0.02 0.02 0.02 0.02 0.02 0.03 0.02 0.03 0.04 0.05 0.06 0.08 0.08 0.10 0.10 0.10 0.09
0.01 0.01 0.01 0.02 0.03 0.03 0.03 0.02 0.02 0.01 0.01 0.01 0.01 0.01 0.01 0.01 0.02 0.03 0.03 0.02 0.02 0.02 0.02 0.02 0.02 0.01 0.01 0.02 0.02 0.02 0.03 0.03 0.03 0.04 0.03 0.04 0.04 0.05 0.07 0.07 0.08 0.09 0.09 0.10
0.01 0.01 0.02 0.03 0.03 0.03 0.03 0.02 0.02 0.01 0.01 0.01 0.01 0.01 0.01 0.02 0.02 0.02 0.03 0.03 0.03 0.04 0.04 0.03 0.03 0.03 0.02 0.02 0.03 0.03 0.03 0.04 0.04 0.05 0.06 0.06 0.06 0.07 0.10 0.09 0.09 0.09 0.08 0.08
0.01 0.01 0.01 0.02 0.03 0.03 0.03 0.02 0.01 0.01 0.01 0.01 0.01 0.01 0.02 0.02 0.02 0.03 0.03 0.03 0.03 0.03 0.02 0.02 0.02 0.02 0.03 0.03 0.03 0.04 0.03 0.03 0.04 0.04 0.04 0.05 0.06 0.07 0.07 0.08 0.08 0.08 0.07 0.08
0.02 0.01 0.01 0.01 0.02 0.02 0.02 0.01 0.01 0.00 0.00 0.01 0.01 0.02 0.02 0.02 0.02 0.02 0.03 0.03 0.03 0.02 0.02 0.01 0.01 0.02 0.03 0.03 0.02 0.03 0.03 0.03 0.03 0.03 0.03 0.02 0.03 0.04 0.05 0.06 0.06 0.05 0.05 0.05
0.01 0.01 0.01 0.01 0.02 0.02 0.02 0.01 0.01 0.01 0.01 0.01 0.02 0.02 0.02 0.02 0.02 0.01 0.02 0.02 0.02 0.02 0.02 0.01 0.01 0.01 0.02 0.02 0.02 0.02 0.02 0.02 0.03 0.02 0.02 0.02 0.03 0.03 0.03 0.04 0.05 0.04 0.03 0.04
0.02 0.01 0.01 0.02 0.02 0.01 0.02 0.02 0.03 0.02 0.02 0.03 0.03 0.03 0.03 0.03 0.02 0.01 0.01 0.01 0.01 0.01 0.01 0.01 0.01 0.02 0.02 0.01 0.01 0.01 0.02 0.02 0.02 0.02 0.02 0.03 0.04 0.04 0.03 0.03 0.03 0.03 0.03 0.03
0.02 0.02 0.02 0.02 0.01 0.01 0.01 0.02 0.02 0.03 0.04 0.05 0.05 0.03 0.03 0.03 0.02 0.01 0.00 0.00 0.00 0.00 0.00 0.00 0.01 0.02 0.02 0.02 0.01 0.01 0.01 0.01 0.02 0.02 0.02 0.02 0.03 0.03 0.02 0.02 0.02 0.02 0.03 0.03
0.02 0.02 0.02 0.02 0.01 0.01 0.01 0.02 0.02 0.03 0.04 0.04 0.03 0.03 0.03 0.03 0.02 0.01 0.01 0.01 0.00 0.00 0.00 0.00 0.00 0.01 0.01 0.01 0.01 0.01 0.01 0.01 0.01 0.01 0.02 0.02 0.02 0.02 0.02 0.01 0.02 0.03 0.03 0.03
0.02 0.01 0.01 0.02 0.01 0.01 0.01 0.01 0.02 0.02 0.02 0.03 0.03 0.03 0.03 0.03 0.03 0.02 0.02 0.02 0.01 0.01 0.01 0.01 0.01 0.00 0.01 0.01 0.01 0.01 0.01 0.02 0.01 0.01 0.02 0.02 0.03 0.02 0.02 0.01 0.02 0.02 0.02 0.02
0.01 0.01 0.01 0.01 0.01 0.00 0.00 0.01 0.02 0.02 0.03 0.03 0.03 0.03 0.03 0.03 0.03 0.04 0.06 0.05 0.03 0.03 0.02 0.02 0.01 0.01 0.01 0.01 0.01 0.01 0.02 0.02 0.02 0.02 0.03 0.03 0.03 0.02 0.02 0.02 0.01 0.01 0.01 0.01
0.01 0.01 0.01 0.01 0.01 0.01 0.01 0.02 0.01 0.01 0.01 0.02 0.02 0.02 0.02 0.02 0.02 0.03 0.04 0.04 0.04 0.03 0.02 0.02 0.01 0.01 0.02 0.02 0.02 0.02 0.03 0.03 0.04 0.04 0.05 0.05 0.04 0.04 0.03 0.02 0.01 0.01 0.01 0.01
0.01 0.01 0.01 0.01 0.01 0.01 0.01 0.01 0.01 0.01 0.01 0.02 0.02 0.02 0.02 0.02 0.01 0.01 0.02 0.02 0.02 0.02 0.02 0.01 0.01 0.01 0.02 0.03 0.03 0.03 0.03 0.03 0.04 0.04 0.04 0.04 0.03 0.03 0.02 0.01 0.01 0.01 0.02 0.02
0.02 0.01 0.00 0.01 0.01 0.01 0.01 0.01 0.01 0.01 0.02 0.02 0.03 0.03 0.02 0.02 0.02 0.01 0.01 0.01 0.01 0.02 0.01 0.01 0.01 0.01 0.02 0.02 0.03 0.03 0.02 0.02 0.03 0.03 0.03 0.03 0.02 0.02 0.02 0.02 0.01 0.02 0.02 0.02
0.03 0.02 0.01 0.01 0.01 0.01 0.01 0.01 0.01 0.01 0.02 0.03 0.04 0.04 0.03 0.04 0.03 0.02 0.01 0.01 0.01 0.02 0.01 0.01 0.01 0.01 0.01 0.01 0.02 0.02 0.03 0.03 0.03 0.03 0.03 0.03 0.03 0.02 0.02 0.03 0.03 0.03 0.03 0.03
0.03 0.02 0.02 0.02 0.02 0.02 0.02 0.01 0.01 0.01 0.01 0.01 0.02 0.03 0.04 0.04 0.03 0.02 0.02 0.02 0.02 0.02 0.01 0.01 0.01 0.00 0.01 0.01 0.01 0.02 0.02 0.03 0.03 0.03 0.04 0.04 0.04 0.04 0.04 0.05 0.04 0.04 0.04 0.04
0.03 0.02 0.02 0.01 0.01 0.01 0.02 0.02 0.02 0.01 0.01 0.01 0.01 0.02 0.03 0.04 0.03 0.03 0.03 0.03 0.02 0.01 0.01 0.01 0.01 0.01 0.01 0.01 0.02 0.02 0.02 0.02 0.02 0.03 0.04 0.05 0.06 0.05 0.05 0.06 0.05 0.05 0.05 0.05
0.03 0.01 0.01 0.01 0.01 0.01 0.01 0.02 0.01 0.01 0.01 0.01 0.01 0.02 0.03 0.03 0.03 0.04 0.05 0.04 0.03 0.02 0.01 0.01 0.01 0.01 0.02 0.02 0.02 0.02 0.02 0.02 0.02 0.03 0.04 0.04 0.06 0.06 0.05 0.07 0.07 0.07 0.07 0.06
MSLP
1022.13 1022.64 1023.12 1023.55 1023.91 1024.15 1024.25 1024.18 1023.93 1023.50 1022.92 1022.20 1021.40 1020.56 1019.72 1018.90 1018.12 1017.38 1016.65 1015.91 1015.14 1014.33 1013.47 1012.57 1011.66 1010.77 1009.94 1009.21 1008.60 1008.13 1007.81 1007.61 1007.52 1007.51 1007.56 1007.63 1007.72 1007.81 1007.90 1007.99 1008.10 1008.22 1008.35 1008.51
1022.67 1023.13 1023.53 1023.85 1024.07 1024.19 1024.17 1024.03 1023.73 1023.30 1022.75 1022.09 1021.36 1020.58 1019.79 1018.99 1018.19 1017.38 1016.56 1015.71 1014.83 1013.90 1012.95 1011.97 1011.01 1010.09 1009.26 1008.53 1007.93 1007.47 1007.15 1006.94 1006.84 1006.82 1006.85 1006.92 1006.99 1007.08 1007.17 1007.27 1007.37 1007.48 1007.60 1007.73
1023.16 1023.53 1023.82 1024.02 1024.13 1024.14 1024.05 1023.85 1023.55 1023.15 1022.65 1022.06 1021.40 1020.69 1019.93 1019.13 1018.29 1017.42 1016.51 1015.55 1014.55 1013.52 1012.48 1011.44 1010.44 1009.50 1008.65 1007.93 1007.33 1006.87 1006.54 1006.33 1006.21 1006.17 1006.19 1006.24 1006.31 1006.40 1006.50 1006.60 1006.71 1006.82 1006.93 1007.05
1023.55 1023.81 1023.98 1024.06 1024.07 1024.01 1023.87 1023.66 1023.38 1023.02 1022.58 1022.07 1021.48 1020.82 1020.08 1019.27 1018.40 1017.46 1016.47 1015.41 1014.32 1013.21 1012.09 1011.01 1009.98 1009.03 1008.18 1007.46 1006.86 1006.40 1006.05 1005.82 1005.68 1005.61 1005.61 1005.65 1005.72 1005.82 1005.93 1006.05 1006.17 1006.29 1006.41 1006.51
1023.80 1023.93 1023.98 1023.96 1023.89 1023.78 1023.62 1023.42 1023.17 1022.87 1022.50 1022.05 1021.52 1020.89 1020.17 1019.36 1018.46 1017.47 1016.40 1015.29 1014.13 1012.96 1011.81 1010.70 1009.66 1008.71 1007.87 1007.15 1006.55 1006.07 1005.71 1005.45 1005.28 1005.19 1005.16 1005.19 1005.27 1005.38 1005.51 1005.65 1005.80 1005.94 1006.06 1006.15
1023.84 1023.85 1023.79 1023.70 1023.57 1023.43 1023.28 1023.11 1022.90 1022.65 1022.34 1021.95 1021.47 1020.87 1020.16 1019.35 1018.42 1017.40 1016.31 1015.16 1013.97 1012.79 1011.63 1010.53 1009.49 1008.56 1007.72 1007.00 1006.40 1005.91 1005.52 1005.23 1005.03 1004.92 1004.88 1004.90 1004.98 1005.11 1005.27 1005.44 1005.61 1005.77 1005.89 1005.98
1023.64 1023.55 1023.42 1023.27 1023.12 1022.98 1022.84 1022.71 1022.55 1022.35 1022.09 1021.75 1021.29 1020.73 1020.03 1019.22 1018.29 1017.27 1016.17 1015.02 1013.85 1012.68 1011.55 1010.47 1009.46 1008.54 1007.72 1007.00 1006.39 1005.88 1005.47 1005.16 1004.93 1004.80 1004.75 1004.77 1004.87 1005.01 1005.19 1005.39 1005.58 1005.75 1005.88 1005.95
1023.19 1023.03 1022.85 1022.69 1022.54 1022.42 1022.32 1022.23 1022.12 1021.97 1021.75 1021.44 1021.01 1020.47 1019.79 1019.00 1018.09 1017.09 1016.02 1014.91 1013.77 1012.65 1011.55 1010.51 1009.53 1008.63 1007.82 1007.10 1006.48 1005.95 1005.52 1005.18 1004.94 1004.80 1004.74 1004.77 1004.88 1005.04 1005.24 1005.46 1005.66 1005.83 1005.95 1006.00
1022.51 1022.32 1022.14 1021.99 1021.88 1021.81 1021.76 1021.71 1021.65 1021.54 1021.35 1021.06 1020.66 1020.13 1019.48 1018.72 1017.85 1016.90 1015.88 1014.82 1013.75 1012.68 1011.64 1010.64 1009.69 1008.81 1008.00 1007.27 1006.63 1006.09 1005.63 1005.28 1005.02 1004.87 1004.82 1004.86 1004.97 1005.14 1005.36 1005.58 1005.78 1005.94 1006.03 1006.05
1021.65 1021.48 1021.33 1021.23 1021.18 1021.17 1021.18 1021.19 1021.17 1021.09 1020.93 1020.66 1020.28 1019.78 1019.16 1018.44 1017.62 1016.73 1015.79 1014.80 1013.80 1012.80 1011.81 1010.85 1009.92 1009.05 1008.24 1007.50 1006.83 1006.26 1005.78 1005.41 1005.14 1004.99 1004.93 1004.98 1005.10 1005.27 1005.48 1005.69 1005.88 1006.01 1006.07 1006.03
1020.70 1020.57 1020.49 1020.47 1020.49 1020.56 1020.64 1020.70 1020.72 1020.67 1020.53 1020.28 1019.92 1019.44 1018.87 1018.20 1017.45 1016.63 1015.77 1014.87 1013.95 1013.01 1012.07 1011.14 1010.23 1009.36 1008.53 1007.76 1007.07 1006.47 1005.97 1005.58 1005.30 1005.14 1005.08 1005.12 1005.24 1005.40 1005.59 1005.78 1005.93 1006.02 1006.03 1005.96
1019.71 1019.65 1019.66 1019.73 1019.86 1020.01 1020.16 1020.27 1020.33 1020.30 1020.18 1019.94 1019.60 1019.16 1018.63 1018.02 1017.35 1016.62 1015.84 1015.03 1014.18 1013.31 1012.42 1011.52 1010.62 1009.74 1008.89 1008.10 1007.38 1006.76 1006.23 1005.82 1005.53 1005.36 1005.29 1005.32 1005.42 1005.56 1005.72 1005.87 1005.98 1006.02 1005.99 1005.86
1018.75 1018.78 1018.89 1019.07 1019.29 1019.52 1019.74 1019.91 1019.99 1019.99 1019.88 1019.66 1019.34 1018.93 1018.45 1017.91 1017.31 1016.67 1015.98 1015.26 1014.49 1013.68 1012.84 1011.97 1011.09 1010.21 1009.35 1008.54 1007.80 1007.15 1006.61 1006.18 1005.88 1005.69 1005.61 1005.62 1005.69 1005.81 1005.92 1006.03 1006.09 1006.09 1006.02 1005.86
1017.88 1018.00 1018.21 1018.49 1018.80 1019.11 1019.39 1019.59 1019.71 1019.71 1019.61 1019.41 1019.11 1018.74 1018.30 1017.82 1017.31 1016.75 1016.16 1015.52 1014.83 1014.10 1013.31 1012.48 1011.62 1010.75 1009.90 1009.09 1008.35 1007.69 1007.15 1006.72 1006.41 1006.21 1006.12 1006.10 1006.15 1006.22 1006.30 1006.36 1006.38 1006.34 1006.25 1006.08
1017.10 1017.31 1017.62 1017.99 1018.38 1018.76 1019.08 1019.32 1019.45 1019.46 1019.37 1019.17 1018.89 1018.55 1018.16 1017.74 1017.30 1016.83 1016.32 1015.78 1015.17 1014.51 1013.79 1013.02 1012.20 1011.37 1010.55 1009.76 1009.04 1008.41 1007.88 1007.46 1007.16 1006.96 1006.85 1006.82 1006.83 1006.87 1006.91 1006.93 1006.92 1006.87 1006.77 1006.62
1016.43 1016.73 1017.12 1017.57 1018.03 1018.46 1018.81 1019.06 1019.20 1019.21 1019.12 1018.92 1018.66 1018.35 1018.00 1017.64 1017.26 1016.87 1016.45 1015.98 1015.47 1014.89 1014.24 1013.54 1012.79 1012.03 1011.26 1010.53 1009.86 1009.27 1008.78 1008.40 1008.12 1007.93 1007.82 1007.78 1007.77 1007.78 1007.79 1007.79 1007.76 1007.71 1007.62 1007.51
1015.87 1016.24 1016.71 1017.22 1017.72 1018.18 1018.55 1018.81 1018.94 1018.95 1018.85 1018.66 1018.41 1018.12 1017.81 1017.50 1017.18 1016.85 1016.50 1016.12 1015.68 1015.19 1014.63 1014.01 1013.36 1012.67 1011.99 1011.35 1010.76 1010.24 1009.81 1009.48 1009.24 1009.08 1008.98 1008.93 1008.92 1008.91 1008.91 1008.90 1008.88 1008.84 1008.78 1008.72
1015.42 1015.85 1016.37 1016.92 1017.45 1017.93 1018.30 1018.56 1018.68 1018.68 1018.58 1018.39 1018.14 1017.87 1017.60 1017.32 1017.05 1016.78 1016.49 1016.17 1015.82 1015.40 1014.93 1014.41 1013.85 1013.27 1012.69 1012.15 1011.65 1011.23 1010.88 1010.62 1010.43 1010.31 1010.24 1010.21 1010.19 1010.19 1010.19 1010.18 1010.17 1010.16 1010.16 1010.16
1015.05 1015.53 1016.08 1016.65 1017.20 1017.67 1018.04 1018.28 1018.40 1018.39 1018.29 1018.11 1017.87 1017.62 1017.37 1017.13 1016.89 1016.66 1016.42 1016.16 1015.87 1015.53 1015.14 1014.71 1014.24 1013.77 1013.30 1012.86 1012.48 1012.15 1011.89 1011.71 1011.58 1011.51 1011.48 1011.47 1011.47 1011.48 1011.49 1011.51 1011.53 1011.56 1011.60 1011.67
1014.76 1015.26 1015.82 1016.40 1016.94 1017.40 1017.75 1017.99 1018.09 1018.09 1017.98 1017.81 1017.60 1017.37 1017.14 1016.93 1016.72 1016.53 1016.33 1016.11 1015.86 1015.58 1015.26 1014.90 1014.53 1014.15 1013.79 1013.45 1013.17 1012.94 1012.77 1012.66 1012.60 1012.58 1012.58 1012.61 1012.64 1012.67 1012.70 1012.75 1012.80 1012.87 1012.98 1013.11
1014.52 1015.03 1015.58 1016.14 1016.66 1017.09 1017.43 1017.65 1017.75 1017.75 1017.66 1017.51 1017.32 1017.12 1016.92 1016.73 1016.55 1016.38 1016.20 1016.02 1015.80 1015.57 1015.30 1015.01 1014.71 1014.41 1014.13 1013.89 1013.69 1013.54 1013.45 1013.41 1013.41 1013.43 1013.48 1013.54 1013.60 1013.66 1013.73 1013.81 1013.90 1014.02 1014.17 1014.36
1014.34 1014.83 1015.35 1015.87 1016.35 1016.75 1017.05 1017.25 1017.35 1017.36 1017.28 1017.16 1017.00 1016.83 1016.67 1016.51 1016.35 1016.20 1016.05 1015.89 1015.70 1015.50 1015.27 1015.03 1014.79 1014.55 1014.34 1014.17 1014.04 1013.96 1013.93 1013.94 1013.99 1014.06 1014.14 1014.24 1014.33 1014.43 1014.53 1014.65 1014.78 1014.95 1015.15 1015.38
1014.22 1014.67 1015.13 1015.59 1016.01 1016.36 1016.63 1016.80 1016.89 1016.90 1016.85 1016.75 1016.63 1016.50 1016.36 1016.24 1016.11 1015.99 1015.86 1015.71 1015.55 1015.37 1015.18 1014.98 1014.78 1014.60 1014.44 1014.32 1014.24 1014.22 1014.23 1014.29 1014.37 1014.48 1014.60 1014.72 1014.85 1014.98 1015.12 1015.28 1015.46 1015.67 1015.90 1016.18
1014.16 1014.54 1014.93 1015.31 1015.66 1015.94 1016.15 1016.29 1016.36 1016.37 1016.33 1016.26 1016.17 1016.07 1015.98 1015.88 1015.79 1015.69 1015.58 1015.46 1015.32 1015.17 1015.01 1014.85 1014.69 1014.55 1014.44 1014.37 1014.34 1014.35 1014.40 1014.49 1014.61 1014.75 1014.90 1015.05 1015.22 1015.38 1015.56 1015.76 1015.98 1016.22 1016.49 1016.80
1014.16 1014.46 1014.76 1015.05 1015.30 1015.50 1015.65 1015.74 1015.78 1015.78 1015.75 1015.69 1015.62 1015.55 1015.49 1015.42 1015.36 1015.29 1015.21 1015.12 1015.01 1014.89 1014.77 1014.65 1014.54 1014.44 1014.38 1014.35 1014.36 1014.41 1014.50 1014.62 1014.77 1014.94 1015.11 1015.30 1015.49 1015.70 1015.91 1016.15 1016.40 1016.68 1016.98 1017.30
1014.21 1014.41 1014.62 1014.80 1014.95 1015.07 1015.14 1015.18 1015.18 1015.15 1015.11 1015.05 1015.00 1014.95 1014.90 1014.86 1014.82 1014.77 1014.72 1014.66 1014.60 1014.52 1014.45 1014.37 1014.32 1014.28 1014.27 1014.29 1014.35 1014.45 1014.57 1014.73 1014.91 1015.10 1015.31 1015.52 1015.75 1015.98 1016.23 1016.49 1016.77 1017.07 1017.39 1017.72
1014.25 1014.37 1014.47 1014.56 1014.62 1014.64 1014.65 1014.62 1014.57 1014.51 1014.45 1014.38 1014.33 1014.28 1014.24 1014.21 1014.19 1014.16 1014.14 1014.12 1014.09 1014.07 1014.05 1014.04 1014.04 1014.07 1014.12 1014.21 1014.32 1014.47 1014.64 1014.84 1015.05 1015.28 1015.51 1015.75 1016.00 1016.26 1016.53 1016.81 1017.11 1017.43 1017.75 1018.08
Thickness
5736 5742 5743 5743 5743 5740 5736 5730 5723 5731 5734 5748 5755 5759 5763 5766 5767 5768 5769 5770 5771 5771 5772 5771 5770 5770 5769 5768 5767 5765 5763 5761 5760 5759 5758 5757 5755 5754 5752 5750 5748 5746 5744 5741
5730 5737 5737 5736 5740 5738 5737 5734 5732 5734 5736 5751 5753 5755 5757 5759 5760 5760 5762 5763 5764 5764 5763 5763 5763 5763 5762 5760 5760 5759 5757 5756 5755 5754 5752 5751 5750 5749 5747 5746 5744 5742 5739 5736
5708 5722 5726 5717 5731 5733 5733 5734 5733 5728 5737 5744 5744 5747 5749 5752 5754 5754 5756 5757 5757 5757 5757 5757 5757 5757 5755 5754 5753 5751 5750 5749 5749 5748 5746 5746 5745 5743 5742 5741 5739 5736 5733 5731
5693 5706 5697 5717 5736 5737 5730 5731 5733 5734 5737 5739 5739 5742 5745 5747 5747 5748 5750 5750 5750 5750 5750 5750 5750 5750 5749 5748 5746 5744 5743 5742 5741 5740 5740 5739 5738 5736 5735 5733 5730 5728 5726 5725
5679 5683 5694 5714 5727 5726 5720 5720 5729 5728 5730 5732 5734 5735 5737 5742 5743 5743 5744 5744 5744 5744 5744 5743 5742 5742 5741 5740 5738 5736 5735 5735 5735 5734 5733 5731 5730 5729 5727 5725 5723 5721 5720 5718
5673 5677 5678 5704 5724 5729 5720 5707 5723 5722 5722 5723 5723 5715 5725 5736 5736 5736 5737 5737 5737 5737 5736 5735 5734 5734 5732 5730 5729 5727 5728 5728 5728 5727 5725 5723 5722 5720 5719 5718 5715 5714 5712 5711
5668 5670 5681 5705 5715 5719 5697 5702 5718 5718 5717 5715 5713 5716 5722 5727 5727 5728 5729 5729 5729 5728 5726 5726 5726 5725 5722 5721 5720 5720 5720 5720 5719 5719 5717 5715 5714 5712 5711 5709 5707 5705 5703 5703
5658 5661 5674 5703 5703 5698 5700 5709 5712 5713 5713 5710 5711 5714 5715 5717 5718 5720 5720 5720 5720 5718 5718 5718 5717 5716 5713 5712 5713 5712 5711 5710 5710 5709 5709 5708 5705 5702 5702 5701 5698 5696 5694 5693
5664 5670 5685 5692 5694 5699 5700 5700 5704 5706 5707 5706 5706 5706 5707 5708 5709 5710 5711 5711 5711 5710 5709 5708 5708 5707 5705 5704 5703 5702 5701 5700 5699 5698 5698 5698 5696 5695 5693 5691 5689 5687 5685 5684
5661 5672 5679 5684 5689 5693 5695 5696 5700 5701 5701 5700 5699 5699 5700 5700 5700 5701 5701 5702 5702 5701 5700 5699 5699 5698 5697 5695 5694 5692 5691 5690 5688 5687 5687 5686 5686 5685 5683 5681 5679 5678 5676 5675
5655 5664 5671 5678 5681 5685 5689 5691 5693 5694 5694 5693 5692 5693 5693 5693 5693 5694 5694 5693 5692 5691 5690 5689 5688 5688 5689 5687 5686 5683 5681 5679 5678 5678 5678 5677 5675 5674 5673 5673 5672 5670 5668 5667
5651 5659 5658 5665 5673 5677 5679 5681 5684 5685 5685 5687 5686 5685 5686 5686 5686 5687 5686 5686 5684 5681 5681 5680 5679 5678 5679 5678 5677 5674 5672 5670 5670 5669 5667 5666 5665 5663 5662 5662 5661 5661 5659 5658
5654 5657 5657 5662 5667 5670 5671 5674 5676 5678 5678 5678 5679 5679 5679 5678 5678 5678 5677 5676 5674 5673 5672 5672 5671 5669 5669 5669 5667 5665 5663 5662 5661 5659 5658 5656 5655 5654 5652 5650 5649 5649 5649 5647
5651 5651 5652 5657 5659 5663 5665 5668 5670 5670 5671 5671 5671 5671 5670 5670 5669 5668 5667 5667 5667 5665 5664 5663 5662 5661 5661 5660 5659 5657 5655 5654 5652 5650 5649 5647 5646 5644 5643 5642 5640 5638 5637 5636
5645 5647 5647 5650 5652 5655 5658 5660 5660 5661 5662 5662 5663 5663 5662 5661 5660 5659 5659 5659 5658 5656 5654 5654 5653 5653 5653 5651 5650 5649 5648 5646 5644 5642 5640 5638 5636 5635 5633 5632 5630 5628 5627 5626
5638 5640 5642 5643 5644 5647 5649 5650 5650 5651 5652 5653 5653 5653 5653 5653 5652 5651 5650 5649 5647 5646 5645 5645 5644 5645 5644 5643 5642 5641 5640 5639 5637 5634 5632 5630 5627 5626 5624 5622 5621 5620 5619 5617
5629 5630 5632 5634 5636 5638 5640 5641 5642 5643 5643 5644 5644 5644 5644 5643 5641 5641 5640 5639 5638 5637 5637 5636 5636 5636 5636 5635 5633 5632 5632 5631 5629 5626 5624 5622 5620 5618 5616 5615 5613 5612 5611 5609
5627 5629 5630 5630 5630 5631 5632 5634 5635 5635 5635 5636 5636 5635 5634 5633 5631 5630 5630 5630 5629 5629 5629 5629 5629 5628 5628 5627 5626 5625 5624 5622 5620 5618 5616 5614 5612 5610 5609 5607 5606 5604 5603 5602
5623 5624 5625 5626 5626 5626 5626 5626 5627 5628 5628 5627 5626 5625 5624 5623 5622 5621 5621 5620 5620 5620 5621 5622 5622 5621 5620 5620 5618 5617 5616 5614 5612 5610 5609 5607 5605 5603 5602 5600 5599 5598 5597 5596
5618 5619 5619 5620 5621 5620 5620 5620 5620 5620 5620 5619 5618 5617 5615 5615 5613 5613 5612 5612 5613 5614 5615 5615 5614 5613 5613 5612 5611 5609 5608 5606 5604 5603 5601 5600 5598 5597 5596 5594 5594 5592 5591 5590
5611 5612 5613 5613 5613 5614 5614 5613 5613 5612 5612 5611 5610 5609 5609 5608 5607 5605 5604 5605 5607 5608 5608 5608 5607 5606 5605 5604 5602 5601 5600 5599 5597 5595 5594 5593 5592 5591 5590 5589 5588 5587 5586 5585
5605 5606 5607 5607 5606 5606 5607 5606 5606 5606 5605 5604 5603 5602 5601 5600 5599 5598 5598 5598 5601 5601 5601 5601 5600 5600 5598 5596 5595 5594 5592 5591 5590 5589 5588 5587 5586 5586 5585 5584 5583 5582 5580 5579
5599 5600 5600 5600 5600 5600 5600 5600 5600 5600 5599 5598 5596 5595 5594 5593 5592 5591 5592 5594 5594 5595 5595 5594 5594 5593 5591 5590 5588 5587 5586 5585 5584 5584 5583 5582 5581 5581 5580 5579 5578 5576 5575 5573
5592 5593 5594 5594 5594 5593 5593 5593 5594 5594 5593 5592 5591 5590 5588 5587 5586 5586 5587 5588 5589 5589 5589 5588 5588 5587 5585 5584 5583 5582 5581 5580 5579 5578 5578 5577 5577 5576 5575 5574 5573 5571 5570 5568
5587 5587 5588 5588 5588 5588 5587 5588 5588 5587 5587 5587 5586 5585 5584 5583 5582 5583 5583 5583 5584 5584 5584 5583 5583 5582 5580 5578 5577 5576 5575 5575 5574 5574 5573 5572 5571 5571 5570 5569 5567 5566 5563 5561
5581 5582 5582 5583 5583 5583 5582 5582 5582 5581 5581 5581 5581 5580 5580 5578 5578 5578 5578 5579 5579 5579 5579 5578 5577 5576 5575 5573 5572 5572 5571 5571 5570 5569 5568 5568 5567 5566 5564 5562 5561 5559 5557 5555
5577 5578 5578 5578 5579 5578 5578 5578 5577 5577 5577 5576 5576 5576 5575 5574 5574 5574 5574 5574 5574 5575 5575 5574 5573 5571 5570 5568 5567 5566 5566 5565 5564 5564 5563 5562 5561 5560 5559 5557 5555 5553 5551 5548